Location: Peterborough
(44.3091°N, 78.3197°W)
Time: 07:13:46
(UTC-04:00)

Vanguard 3 - Pass Details

Date: 23 February 2024
Orbit: 510 x 3234 km, 33.3° (Epoch: 24 April)

Event Time Altitude Azimuth Distance (km) Brightness Sun altitude
Rises 22:56:25 0° 252° (WSW) 7,179 12.1 -50.2°
Reaches altitude 10° 23:01:24 10° 249° (WSW) 6,168 11.7 -50.8°
Enters shadow 23:10:44 33° 236° (SW) 4,323 10.6 -51.7°
